Content
SEND FEEDBACK

Daily
Averages
Monthly
Summary
United States of America

UKIAH, CALIFORNIA


Home > North America > United States > California
Elevation: 615 feet     Latitude: 39 08N     Longitude: 123 12W

WEATHER
 
SELECT A DAY
Number of Records: 217,009;   Date Range: 1/1/95 - 7/29/14
 
SHARE

PRINT THIS DATA

[ ← Previous Day ]
WEATHER ALMANAC - JANUARY 24, 2013
[ Next Day → ]
[ °C ]   °F
Weather ElementAverageHighLow
Temperature49.1 °F59 °F (2:56 pm)46 °F (2:56 am)
Dewpoint47.4 °F52 °F (3:56 pm)44.6 °F (12:26 am)
Humidity93.8 %100 % (12:22 am)75 % (2:56 pm)
Barometer30.13 in30.20 in (11:29 pm)30.09 in (12:22 am)

Weather ElementAverage
Weather ElementTotal
Precipitation0.08 in
Heating Degree Days12.5 (Base 65)
Growing Degree Days2.5 (Base 50)
Averaged from 59 records on January 24, 2013
WEATHER CONDITIONS BREAKOUT
WIND DIRECTION BREAKOUT
WEATHER BY HOUR - JANUARY 24, 2013
[ °C ]   °F
Local TimeTemperatureDewpointHumidityBarometerVisibilityWind DirectionWind SpeedGust SpeedPrecipitationEventsConditions
12:22 AM46.4 °F46.4 °F100 %30.09 in1.2 miCalm0.00 inOvercast
12:26 AM46.4 °F44.6 °F93 %30.09 in0.8 miCalm0.00 inOvercast
12:56 AM46.9 °F46.0 °F97 %30.09 in0.8 miCalm0.00 inMist
1:04 AM46.4 °F46.4 °F100 %30.09 in1.0 miCalm0.00 inRainLight Rain
1:08 AM46.4 °F46.4 °F100 %30.09 in1.2 miCalm0.00 inRainLight Rain
1:21 AM46.4 °F46.4 °F100 %30.09 in1.0 miCalm0.00 inRainLight Rain
1:34 AM46.4 °F46.4 °F100 %30.09 in3.0 miCalm0.01 inRainLight Rain
1:51 AM46.4 °F46.4 °F100 %30.09 in2.5 miCalm0.01 inOvercast
1:56 AM46.9 °F46.0 °F97 %30.09 in2.5 miCalm0.01 inOvercast
2:06 AM46.4 °F44.6 °F93 %30.10 in1.8 miCalmOvercast
2:17 AM46.4 °F44.6 °F93 %30.10 in0.8 miCalmOvercast
2:25 AM46.4 °F44.6 °F93 %30.10 in1.2 miCalmOvercast
2:45 AM46.4 °F44.6 °F93 %30.11 in0.5 miCalmFogFog
2:56 AM46.0 °F45.0 °F96 %30.11 in0.5 miCalmFogFog
3:06 AM46.4 °F44.6 °F93 %30.11 in0.2 miCalmFogFog
3:15 AM46.4 °F44.6 °F93 %30.11 in0.5 miCalmFogFog
3:52 AM46.4 °F46.4 °F100 %30.09 in0.5 miCalmFogFog
3:56 AM46.0 °F45.0 °F96 %30.09 in0.5 miCalmFogFog
4:13 AM46.4 °F46.4 °F100 %30.10 in1.2 miCalmOvercast
4:24 AM46.4 °F46.4 °F100 %30.10 in2.5 miCalmOvercast
4:33 AM46.4 °F44.6 °F93 %30.10 in1.8 miCalmOvercast
4:53 AM46.4 °F46.4 °F100 %30.11 in1.8 miCalmOvercast
4:56 AM46.0 °F45.0 °F96 %30.11 in2.0 miCalmOvercast
5:36 AM46.4 °F46.4 °F100 %30.12 in1.8 miCalm0.01 inRainLight Rain
5:44 AM46.4 °F46.4 °F100 %30.12 in2.5 miCalm0.01 inRainLight Rain
5:52 AM46.4 °F46.4 °F100 %30.12 in2.0 miCalm0.01 inOvercast
5:56 AM46.9 °F46.0 °F97 %30.12 in1.8 miCalm0.01 inOvercast
6:20 AM46.4 °F46.4 °F100 %30.12 in1.8 miCalmOvercast
6:36 AM46.4 °F44.6 °F93 %30.13 in1.5 miCalmOvercast
6:45 AM46.4 °F44.6 °F93 %30.13 in1.8 miCalmOvercast
6:56 AM46.0 °F46.0 °F100 %30.13 in1.5 miCalmOvercast
7:25 AM46.4 °F46.4 °F100 %30.14 in1.5 miCalmOvercast
7:40 AM46.4 °F46.4 °F100 %30.14 in2.5 miCalmOvercast
7:56 AM46.9 °F46.0 °F97 %30.14 in1.8 miCalm0.01 inOvercast
8:21 AM48.2 °F46.4 °F93 %30.14 in2.0 miCalmOvercast
8:27 AM48.2 °F46.4 °F93 %30.14 in3.0 miCalmOvercast
8:34 AM48.2 °F46.4 °F93 %30.15 in2.5 miCalmOvercast
8:41 AM48.2 °F46.4 °F93 %30.15 in4.0 miCalmOvercast
8:56 AM48.0 °F46.9 °F96 %30.15 in3.0 miCalmOvercast
9:36 AM50.0 °F48.2 °F94 %30.16 in5.0 miCalmMostly Cloudy
9:56 AM51.1 °F48.0 °F89 %30.16 in10.0 miCalmMostly Cloudy
10:35 AM51.8 °F48.2 °F88 %30.17 in10.0 miCalmScattered Clouds
10:56 AM53.1 °F48.9 °F86 %30.16 in10.0 miCalmMostly Cloudy
11:07 AM53.6 °F50.0 °F88 %30.17 in10.0 miCalmOvercast
11:28 AM53.6 °F50.0 °F88 %30.16 in10.0 miCalmOvercast
11:56 AM55.0 °F50.0 °F83 %30.15 in10.0 miCalmOvercast
12:56 PM55.9 °F51.1 °F84 %30.14 in10.0 miCalmOvercast
1:56 PM57.0 °F51.1 °F81 %30.13 in10.0 miCalmOvercast
2:56 PM59.0 °F51.1 °F75 %30.12 in10.0 miCalmOvercast
3:56 PM57.9 °F52.0 °F81 %30.12 in10.0 miCalmOvercast
4:56 PM57.0 °F52.0 °F83 %30.13 in10.0 miCalmOvercast
5:56 PM55.9 °F52.0 °F87 %30.14 in10.0 miCalmOvercast
6:56 PM55.0 °F52.0 °F89 %30.17 in10.0 miCalmOvercast
7:56 PM53.1 °F52.0 °F96 %30.17 in10.0 miCalmOvercast
8:56 PM54.0 °F52.0 °F93 %30.18 in10.0 miCalmOvercast
9:56 PM53.1 °F51.1 °F93 %30.18 in10.0 miCalmOvercast
10:56 PM51.1 °F50.0 °F96 %30.19 in5.0 miCalmOvercast
11:29 PM51.8 °F50.0 °F94 %30.20 in9.0 miCalmOvercast
11:56 PM51.1 °F48.9 °F92 %30.19 in7.0 miCalmOvercast
Hourly data recorded from KUKI, located miles away from Ukiah, California







STORIES FROM OUR PARTNERS